Wind_Speed
2 2 3 3 4 4 3 2 3 5 7 8 10 11 12 13 15 15 15 14 13 13 12 12 11 11 11 11 11 11 11 11 12 12 13 14 13 13 13 13 13 14 14 13 13 12 11 11 11 11 11 12 13 13 13 13 13 13 13 13 13 13 13 13 12 12 11 10 9 9 8 9 10 10 10 10 9 9 8 8 7 8 8 9 9
3 2 1 1 2 2 3 2 2 3 4 6 7 8 10 12 13 14 14 14 14 13 13 13 13 12 12 12 12 12 12 11 11 11 11 12 12 13 13 13 14 14 14 14 13 13 13 13 12 12 12 13 14 14 14 14 13 13 13 13 14 14 14 14 13 13 12 11 11 10 10 10 10 10 10 10 10 9 9 8 8 8 8 8 9
4 3 2 1 0 0 1 2 2 1 2 3 5 6 8 9 11 12 13 13 13 13 13 14 14 13 13 13 13 13 12 12 11 11 11 11 12 12 13 14 14 15 14 13 13 13 14 14 14 13 13 13 14 14 14 15 14 14 14 14 14 15 15 15 14 14 13 13 12 12 11 12 12 12 11 11 11 10 9 9 8 8 8 8 8
5 4 4 3 2 2 1 1 1 1 0 1 3 4 6 7 8 9 10 11 12 12 13 13 14 14 14 14 14 14 13 13 12 12 13 12 12 13 13 14 15 15 14 13 13 13 14 14 14 14 13 13 14 14 14 15 16 16 15 15 15 16 16 16 15 15 14 14 14 13 13 13 14 14 13 12 12 11 10 9 9 9 9 9 8
6 6 5 5 4 4 3 3 2 2 1 1 1 3 4 5 6 7 8 9 10 11 12 12 13 13 14 14 15 14 14 14 14 14 14 13 13 13 13 14 14 14 14 14 14 14 14 14 14 14 14 14 14 14 15 15 16 17 17 17 17 17 16 17 16 15 15 15 15 14 14 14 14 14 13 13 12 11 11 10 10 10 10 10 10
8 8 7 6 6 5 5 4 4 4 3 3 3 3 3 4 5 6 7 8 9 9 10 11 11 12 13 13 14 14 13 13 14 14 14 14 13 14 14 14 14 14 14 14 14 14 14 15 15 15 14 15 15 15 15 15 16 17 17 17 18 18 17 17 17 16 15 15 15 15 14 14 15 15 14 13 12 12 12 12 12 11 11 12 11
9 9 9 8 8 7 7 7 6 6 6 5 5 4 4 4 5 5 6 7 8 8 9 10 11 11 11 12 12 12 12 13 13 14 14 14 14 14 14 15 15 14 14 14 14 15 15 16 16 16 16 16 16 16 16 16 16 17 16 17 17 17 17 17 17 16 16 16 15 16 15 15 15 16 15 14 13 13 13 13 13 13 13 12 12
8 9 10 10 10 9 9 8 8 8 7 7 7 7 6 6 6 6 6 7 8 8 9 10 10 11 11 11 11 11 12 12 13 13 13 13 14 14 15 15 15 15 15 15 15 16 16 17 17 17 16 16 16 16 16 16 16 16 16 16 17 17 17 17 17 17 16 16 16 16 16 16 16 17 16 16 15 14 14 14 14 13 13 13 12
8 8 9 10 11 11 11 11 10 10 9 9 9 9 9 8 8 8 8 8 8 9 9 10 11 11 11 12 12 12 12 13 13 13 13 13 14 14 15 15 15 15 15 15 16 16 16 17 17 16 16 16 16 16 16 16 16 16 16 17 17 17 17 17 17 17 17 17 17 17 17 17 17 17 18 17 15 15 15 15 14 13 13 12 11
7 7 8 9 10 11 12 13 12 12 11 11 11 11 11 10 10 10 10 10 9 10 10 10 11 12 12 12 13 13 13 13 13 13 13 13 14 14 14 15 15 15 15 15 16 16 16 16 16 16 15 15 15 15 15 15 16 16 17 17 17 17 17 17 17 17 17 17 17 17 17 17 17 18 18 17 15 14 14 14 13 13 12 11 10
7 7 7 8 9 10 11 13 14 14 13 13 13 13 12 12 12 12 12 12 12 12 11 12 12 13 13 13 13 13 14 14 14 14 14 14 14 14 14 14 14 14 15 15 15 15 16 16 16 16 15 15 16 15 15 15 15 16 16 17 17 17 17 17 17 17 17 17 16 16 16 16 16 17 16 15 14 13 14 13 12 12 11 10 8
6 7 7 7 8 8 10 11 13 14 15 15 14 14 14 14 14 13 14 14 14 14 14 14 14 14 14 14 14 14 14 14 14 14 14 14 14 14 14 14 14 14 15 15 16 16 16 16 16 16 16 16 16 16 15 15 15 15 15 16 16 16 16 16 16 16 16 16 16 15 15 15 15 15 15 14 13 13 13 13 12 11 10 9 8
7 7 7 7 8 8 9 10 11 13 15 16 16 16 16 16 16 15 15 15 15 15 16 16 16 16 16 16 16 15 15 15 15 15 15 15 15 15 15 15 15 15 15 15 16 16 16 16 17 17 17 17 16 16 16 16 15 15 15 15 15 15 15 16 16 16 15 15 15 15 15 15 15 15 15 14 14 13 13 13 12 11 10 9 8
9 8 8 8 8 8 8 9 10 11 13 14 16 17 18 18 17 17 17 16 16 16 16 17 17 17 17 18 18 17 17 16 16 16 16 16 16 16 15 15 16 16 16 16 16 16 16 16 17 17 17 17 17 17 16 16 16 16 15 15 15 15 15 15 16 16 15 15 15 15 15 15 15 15 15 15 14 14 14 13 13 12 10 9 9
10 10 9 9 9 10 10 10 10 10 11 12 14 16 18 19 19 19 19 18 18 18 18 18 18 18 18 18 18 18 18 18 18 18 18 18 18 18 17 17 17 17 17 17 17 17 17 17 17 17 17 17 17 17 17 17 16 16 16 16 16 16 16 16 16 16 16 16 15 15 15 15 15 16 16 16 15 15 14 14 13 12 11 10 10
12 12 11 10 10 11 11 11 11 10 11 11 12 14 16 18 20 20 20 20 20 19 19 20 20 20 20 20 19 19 19 19 19 19 19 19 19 19 19 19 19 19 19 19 19 19 18 18 18 18 18 18 18 18 18 18 18 18 17 17 17 17 17 17 17 17 17 17 16 16 16 15 15 16 16 16 16 16 15 15 14 13 12 12 11
14 14 14 13 12 12 11 12 12 12 12 12 12 12 14 15 17 19 21 21 22 21 21 21 21 22 22 22 21 21 21 21 21 20 20 20 20 20 20 20 20 20 20 20 20 20 20 20 20 20 20 20 20 20 19 19 19 19 19 19 19 19 19 18 18 18 18 17 17 17 16 16 15 15 15 16 16 16 15 15 15 15 14 13 13
17 16 16 15 14 14 13 13 13 13 13 13 13 13 13 14 15 16 18 20 21 22 23 23 23 23 23 23 23 24 24 23 23 23 22 22 22 22 22 22 22 22 22 22 22 22 22 22 22 22 22 22 22 22 22 21 21 21 21 21 21 21 20 20 20 19 19 19 18 18 17 17 16 16 15 15 16 16 16 16 16 16 16 15 15
19 19 18 17 17 16 15 15 14 14 14 14 14 13 13 14 14 14 15 17 18 20 21 23 23 24 24 24 25 25 25 25 25 25 25 25 25 25 25 24 24 24 24 23 23 23 23 24 24 24 24 24 24 24 24 23 23 23 23 22 22 22 21 21 21 21 21 20 20 20 19 19 18 18 17 17 17 17 17 18 18 19 18 18 17
22 21 21 20 20 19 18 18 17 17 16 16 15 14 14 15 15 15 15 15 16 17 18 20 21 23 24 25 26 26 26 26 26 26 27 27 27 27 27 27 27 27 27 26 26 25 25 25 25 25 25 25 25 25 25 25 25 25 24 24 24 23 23 22 22 22 22 22 22 22 21 21 21 20 20 19 19 19 19 19 20 21 21 21 20
25 23 22 22 22 22 22 21 21 20 19 18 17 17 16 16 16 16 16 16 16 16 17 18 19 20 21 23 24 25 25 26 27 27 28 28 28 29 29 29 29 29 30 29 29 28 28 27 27 26 26 26 26 26 26 27 27 26 26 26 26 25 25 24 24 24 24 23 23 23 23 23 23 22 22 22 22 21 21 21 22 23 23 23 23
27 26 25 24 24 24 25 24 24 23 22 21 21 20 19 18 18 17 17 17 17 18 18 18 19 19 20 21 21 22 23 24 25 26 27 28 28 29 30 30 30 31 31 31 32 32 31 30 30 29 28 28 27 27 28 28 28 28 28 28 28 28 28 27 27 26 26 26 25 25 25 24 24 24 24 24 24 24 24 24 24 24 25 25 25
29 28 28 27 26 26 26 27 27 27 25 25 24 23 22 21 20 19 19 19 19 19 19 20 20 20 20 21 21 21 22 23 23 24 25 26 26 28 28 29 30 31 31 32 33 33 33 33 33 32 31 31 30 29 29 29 29 30 30 30 30 30 30 30 30 29 29 28 28 27 27 26 26 26 26 26 26 26 26 26 26 26 26 27 27
29 30 30 30 30 29 28 28 29 29 28 28 27 27 26 25 23 22 21 21 21 21 21 21 21 21 22 22 22 22 23 23 24 25 25 25 26 26 26 27 28 29 30 31 32 33 34 34 35 35 34 34 33 32 32 31 31 31 31 31 32 32 32 32 32 31 31 31 30 30 29 28 28 28 28 27 27 27 27 27 27 27 28 28 29
30 30 30 31 32 31 30 29 30 30 31 31 30 30 29 28 27 26 25 24 23 23 23 22 23 23 23 23 23 23 24 24 25 25 25 26 26 26 27 27 27 28 28 29 30 32 33 34 34 35 35 36 35 34 34 33 33 33 33 33 33 33 33 33 33 33 33 32 32 32 31 31 30 29 29 29 29 28 28 28 28 28 29 29 30
29 30 30 30 31 31 31 30 30 30 32 32 33 32 32 31 30 30 29 28 27 26 26 26 26 26 26 25 24 25 25 25 26 27 26 26 27 27 27 28 28 28 28 29 29 30 31 32 33 34 35 36 36 36 36 35 35 35 35 35 35 35 35 34 34 34 34 34 34 34 33 33 33 32 32 32 31 31 31 31 30 30 31 31 31
28 29 30 30 30 31 31 31 31 31 31 33 34 34 34 34 34 33 32 32 31 30 30 30 29 29 29 28 28 28 28 27 28 28 28 28 28 28 28 28 28 29 29 29 29 30 30 31 32 33 34 35 36 36 37 37 37 37 36 36 36 36 36 36 35 35 35 35 35 35 35 35 35 35 35 34 34 34 34 34 34 34 34 33 33
28 29 30 31 30 31 31 30 31 31 31 32 33 34 35 35 36 36 35 35 34 33 33 33 33 32 33 32 31 31 31 30 31 31 31 30 30 30 29 29 29 29 29 29 30 30 30 31 31 32 33 34 35 36 37 37 37 38 38 37 37 37 37 37 37 37 37 37 37 37 37 37 37 37 37 37 37 37 37 37 37 37 37 37 37
29 30 30 30 31 31 30 30 30 31 31 31 31 32 34 35 36 36 36 36 36 35 35 35 34 35 36 35 35 35 34 34 34 35 34 33 33 32 32 31 30 30 30 30 30 30 31 31 31 31 32 33 34 35 36 36 37 37 38 38 37 37 37 37 38 38 38 38 38 38 38 38 38 38 39 39 39 39 39 40 40 40 40 40 39
31 31 30 30 31 32 31 30 31 31 31 31 31 31 32 33 34 35 36 36 36 35 35 35 35 36 36 37 37 37 36 36 36 37 37 37 36 35 35 34 33 32 32 31 31 31 31 31 31 31 32 32 33 34 34 35 36 37 37 37 37 37 38 38 38 38 38 39 39 39 39 39 39 40 40 40 40 40 41 41 41 41 41 41 41
32 32 31 31 32 32 32 32 32 31 31 31 31 31 30 31 31 32 33 33 34 35 34 34 34 35 35 36 38 38 38 37 37 38 38 39 39 38 38 37 35 35 35 34 33 32 31 31 31 31 32 32 33 33 34 34 35 36 37 37 37 37 38 38 38 39 39 40 40 40 40 40 41 41 41 41 41 41 42 42 42 42 42 42 42
33 32 32 33 33 33 34 34 35 33 33 33 32 31 30 29 29 30 30 31 33 33 33 32 32 33 33 34 36 37 38 37 37 38 39 40 40 40 40 39 38 38 37 36 36 35 33 32 32 32 32 32 33 33 34 35 35 36 36 37 37 37 38 38 39 39 40 40 41 41 41 41 41 41 41 41 41 41 42 42 42 42 42 43 42
33 32 32 33 34 35 35 36 37 36 36 35 34 33 31 30 29 29 30 31 32 32 32 31 31 31 31 32 34 36 36 36 37 37 38 40 40 41 41 41 40 40 40 39 38 37 36 35 34 33 33 34 34 34 35 35 36 36 36 37 37 37 38 39 39 40 41 41 42 42 42 41 41 40 40 40 40 40 40 41 41 41 42 42 43
33 32 31 32 33 34 35 36 38 39 39 39 37 35 34 33 31 30 30 30 31 31 31 31 31 31 31 31 34 35 35 36 36 36 38 39 40 41 42 42 42 42 41 41 40 39 38 37 36 35 35 35 35 35 36 36 36 37 37 37 37 38 38 39 39 40 41 41 42 42 41 41 40 40 40 40 40 40 40 40 40 40 41 41 42
33 33 32 32 33 32 32 34 37 39 40 41 40 38 37 35 34 32 31 30 30 30 31 31 31 31 31 32 34 35 35 36 36 36 38 39 39 40 41 42 42 42 42 42 42 41 39 39 38 37 36 36 36 37 37 37 37 37 38 38 39 39 40 40 40 40 41 41 41 41 41 40 40 40 40 40 40 40 40 41 41 41 41 41 41
36 34 33 32 33 32 32 33 35 37 39 40 41 40 38 36 35 34 33 31 31 30 30 31 31 31 32 33 35 36 36 37 37 37 39 40 39 39 40 41 41 41 42 42 42 41 40 39 39 38 38 37 37 38 38 38 38 38 38 39 40 41 41 42 41 42 42 42 42 41 41 41 41 40 40 40 40 40 41 41 42 42 42 42 42
38 37 35 33 33 33 33 34 35 36 38 39 41 41 39 37 36 36 34 33 32 32 32 32 32 32 33 34 35 36 37 38 38 39 40 40 39 39 40 40 40 41 41 41 41 40 39 39 39 39 39 39 38 39 39 38 39 39 40 40 41 42 43 43 43 43 43 43 43 42 41 41 41 41 41 41 41 41 42 42 43 43 43 43 43
39 38 36 34 33 33 33 34 34 34 35 37 38 39 39 38 37 36 35 34 34 35 35 35 34 34 34 34 35 37 38 39 39 40 40 40 40 39 40 40 40 40 40 39 39 38 37 38 39 40 40 40 40 40 40 39 40 40 41 41 42 43 43 44 44 44 44 44 44 43 43 42 42 41 41 41 42 42 42 42 43 43 43 43 43
38 38 38 36 35 33 32 32 32 32 32 34 35 36 37 38 38 37 37 36 37 37 38 38 37 38 37 36 36 37 39 40 40 40 41 41 40 40 40 39 40 40 38 37 37 37 36 38 39 40 41 42 42 43 41 41 41 42 42 43 43 44 44 44 44 44 44 45 45 44 44 43 43 42 42 42 42 43 42 42 42 42 42 42 42
37 37 37 37 36 34 33 32 32 32 32 33 33 34 35 36 37 37 37 38 39 39 39 39 39 40 39 37 37 38 41 42 41 41 42 42 41 41 40 39 40 40 38 38 38 38 39 40 41 41 41 42 43 43 43 43 43 43 43 44 45 45 45 45 44 44 45 45 45 45 45 44 43 43 43 43 43 43 42 42 41 41 41 41 40
35 35 35 35 35 35 34 33 33 34 33 33 34 34 35 35 36 37 38 39 40 40 41 41 41 41 41 40 39 40 42 42 43 43 43 43 42 42 42 41 41 42 41 41 41 41 42 43 43 43 43 43 43 43 43 45 45 45 45 46 47 47 46 45 44 45 46 46 46 46 45 45 44 44 43 43 43 42 42 41 41 41 41 41 40
34 34 33 33 33 33 34 35 35 35 35 35 35 35 36 37 38 38 39 40 41 42 43 43 43 43 43 42 42 43 44 44 45 45 45 45 44 44 44 43 44 45 44 44 44 44 45 46 45 45 45 45 45 44 44 45 46 47 48 49 49 48 47 47 46 46 47 47 47 46 46 46 45 44 44 43 43 43 42 41 41 41 41 41 41
34 34 34 33 32 31 32 33 34 34 35 35 36 36 36 37 38 39 40 41 42 43 44 45 45 45 45 44 45 45 46 46 47 47 47 47 47 47 46 45 46 47 47 47 47 47 47 48 47 47 48 48 47 46 46 47 48 48 49 50 51 50 49 48 47 47 48 48 47 47 47 47 46 45 44 44 43 43 43 42 42 41 41 41 41
34 35 35 35 34 33 32 32 32 33 33 34 34 35 35 36 37 38 39 40 41 42 44 45 46 47 47 47 47 47 48 49 49 49 50 50 50 50 48 47 48 49 49 49 49 49 49 50 49 50 50 49 49 47 47 48 49 49 49 51 52 51 50 48 48 49 50 49 48 48 48 48 47 46 45 45 44 44 44 43 42 42 41 41 41
33 34 35 36 36 36 36 35 35 35 34 34 35 35 36 37 37 38 38 39 40 41 42 43 44 46 47 48 48 49 50 50 51 51 51 51 52 51 51 49 50 51 51 51 50 50 51 51 51 51 51 51 50 49 49 49 49 49 50 51 52 51 51 50 50 51 51 50 50 50 50 49 48 48 47 46 45 45 44 44 43 43 42 42 42
34 35 35 36 37 38 38 38 38 38 38 38 38 38 38 38 39 39 39 40 40 41 41 43 44 45 46 47 47 48 49 51 51 52 52 53 53 53 53 52 51 52 52 52 52 52 52 52 52 53 53 52 52 51 51 51 51 50 50 51 51 51 53 53 52 52 52 51 51 51 51 51 50 49 48 47 46 45 45 45 44 44 43 43 43
37 37 38 38 39 39 40 40 40 41 41 41 41 42 42 42 41 41 42 42 42 41 42 42 43 44 45 46 47 48 49 50 51 52 53 53 54 54 54 53 53 53 54 54 54 53 53 53 54 54 54 54 54 54 53 53 53 52 51 52 52 52 54 54 53 53 53 53 53 53 53 52 51 50 49 48 47 46 45 45 45 45 45 44 44
41 42 42 43 43 44 43 43 43 44 44 45 45 46 46 46 46 46 45 45 45 45 44 44 44 44 45 45 46 47 48 50 51 52 53 53 54 55 55 55 55 55 55 55 56 55 55 55 55 55 56 56 56 56 55 55 55 54 53 54 53 53 54 54 53 53 54 54 53 53 54 54 53 51 50 49 48 47 46 46 46 46 46 45 45
46 47 48 48 49 49 50 49 48 48 48 48 49 49 50 50 50 50 50 50 50 50 50 49 49 49 48 47 47 47 48 49 50 51 52 53 54 55 55 56 56 56 56 56 57 57 56 56 57 57 57 57 57 57 57 56 56 55 55 55 55 55 56 54 52 52 54 54 54 55 56 55 54 53 52 50 49 48 48 47 47 47 47 46 46
51 51 52 53 53 54 54 54 54 54 53 53 52 52 52 53 53 53 54 54 54 54 54 54 54 54 54 53 52 51 50 50 51 52 52 53 54 55 56 56 57 57 57 58 58 58 58 57 58 58 59 59 59 58 58 57 56 56 55 55 56 56 57 54 52 52 54 56 57 57 57 56 55 55 53 52 51 50 49 49 49 48 48 48 48
55 55 56 57 58 58 58 58 58 59 58 57 56 55 55 55 55 56 56 56 56 57 57 57 58 58 58 58 57 56 55 54 53 53 54 54 55 55 56 57 57 58 58 58 59 60 60 59 59 60 60 60 60 59 59 58 57 56 56 56 56 57 57 56 54 54 56 58 59 58 57 57 58 57 55 53 52 52 51 50 50 50 50 50 49
Wind_Direction
355 29 37 35 33 38 58 114 165 190 204 211 213 213 214 216 221 226 233 236 235 233 231 229 228 226 225 229 232 232 230 228 227 227 225 224 223 223 220 217 214 211 211 211 207 206 210 213 214 217 215 215 216 218 221 223 226 228 229 229 228 226 224 224 228 232 236 239 241 242 241 240 238 236 238 240 240 239 240 245 248 253 256 259 261
309 307 352 50 40 28 31 45 99 159 182 195 204 208 208 210 213 217 222 225 226 226 226 227 229 229 229 230 232 234 235 236 236 235 232 229 228 227 224 221 219 216 214 212 208 207 211 215 216 219 218 217 218 219 222 225 226 227 229 229 228 226 225 227 232 233 235 237 239 242 244 245 244 243 243 244 244 243 244 247 250 253 257 262 264
286 288 279 255 186 48 5 8 28 77 158 177 188 196 200 202 205 208 211 216 220 224 227 229 231 232 233 233 234 234 236 237 236 234 231 228 227 226 225 224 224 223 221 218 214 211 214 217 219 222 222 221 222 223 226 229 230 230 229 230 230 228 228 231 234 235 236 238 241 243 245 248 249 248 247 249 250 251 252 253 255 256 259 262 265
264 271 274 267 251 226 231 275 312 344 12 179 182 190 195 196 200 203 206 210 216 224 230 234 236 236 236 237 237 235 235 233 231 229 226 224 223 223 223 223 225 227 226 224 222 220 219 220 222 223 224 223 224 225 227 231 233 233 232 232 232 230 230 233 236 238 240 241 244 245 247 249 251 250 250 252 255 257 257 256 255 256 258 258 258
251 253 258 263 264 253 236 233 244 254 260 251 219 202 199 198 199 203 206 209 214 220 227 233 237 238 238 239 239 237 235 231 229 227 223 221 220 219 219 220 223 225 225 225 226 226 226 225 226 225 225 224 224 224 226 229 232 233 233 233 234 234 234 235 238 241 242 244 246 246 247 250 252 253 252 252 255 256 255 253 252 252 253 254 254
245 244 246 251 255 258 253 240 235 235 238 241 239 231 222 212 206 204 206 209 212 215 219 225 230 234 236 237 238 236 234 231 228 226 222 219 219 218 217 218 220 221 221 222 224 226 228 229 229 228 226 226 225 224 225 226 229 232 232 232 234 235 236 237 238 240 242 243 245 245 244 245 249 252 251 249 249 249 248 247 245 244 245 247 248
253 246 244 242 242 248 253 250 242 235 233 235 233 235 235 231 226 217 211 210 211 212 213 216 219 222 226 230 232 233 231 230 228 227 223 219 219 218 216 217 218 219 219 221 222 223 225 228 229 229 228 228 228 227 226 227 230 233 233 234 235 236 237 238 238 238 239 239 241 241 240 238 242 246 246 245 241 240 240 239 238 237 237 239 242
271 258 248 243 241 240 241 244 246 242 237 234 232 232 233 234 236 233 225 220 217 215 214 215 215 216 218 221 223 226 227 227 228 227 225 221 220 219 218 218 219 219 219 220 221 222 224 226 229 230 230 231 232 231 230 231 233 236 237 238 239 240 240 241 241 240 239 238 238 238 237 235 236 240 241 240 236 234 234 234 234 233 234 235 238
287 275 263 253 246 241 237 237 239 242 242 238 234 233 233 232 234 236 235 232 228 226 224 223 221 220 219 218 219 220 222 224 226 227 227 224 223 222 221 221 221 221 221 221 223 224 225 227 230 232 233 234 234 234 233 233 234 236 238 240 241 242 242 243 243 243 241 240 238 237 237 234 233 236 238 237 233 230 231 232 232 232 233 234 236
302 291 280 268 256 248 242 238 237 237 239 239 237 235 233 232 231 232 234 234 235 234 233 233 232 230 227 224 223 222 223 225 226 228 229 229 229 229 227 227 226 227 227 226 228 229 230 231 233 234 235 236 236 235 234 233 233 234 236 237 239 240 241 241 241 241 241 239 238 237 235 234 233 235 237 236 232 230 230 231 230 230 232 232 233
306 302 295 285 273 261 251 245 241 238 237 238 239 238 236 235 232 231 233 233 233 234 235 237 238 237 236 234 232 231 231 231 232 233 234 234 234 236 236 235 233 233 234 234 235 236 236 237 237 238 238 238 238 237 236 235 234 234 234 235 236 237 239 239 239 238 237 237 236 235 234 233 234 236 237 236 233 230 229 229 227 226 227 226 223
296 300 301 297 289 278 267 257 249 244 241 239 239 239 239 239 236 234 233 234 234 234 235 236 238 239 239 239 238 237 237 238 238 239 240 240 239 239 241 242 240 238 238 239 239 239 239 241 242 242 242 242 242 242 241 240 239 237 237 238 238 238 239 240 241 240 238 236 235 234 234 233 235 237 237 236 232 228 227 227 225 223 222 220 215
293 293 294 295 295 291 283 273 262 253 247 244 242 241 241 240 240 239 236 236 236 237 237 237 238 239 240 241 240 239 240 241 241 243 245 245 245 244 244 247 248 246 243 243 243 242 241 242 244 244 245 245 245 246 245 245 243 242 241 241 242 242 243 244 245 245 243 241 239 237 236 235 236 239 239 237 232 228 227 227 226 226 223 217 210
297 294 293 292 291 291 289 284 277 267 259 252 247 244 243 242 242 242 240 239 239 239 240 241 241 241 242 243 243 242 242 242 243 245 246 248 248 248 247 248 251 252 251 250 249 247 245 245 245 246 246 246 245 246 246 246 245 244 244 243 243 244 244 245 246 247 247 245 243 241 239 238 239 240 241 240 236 232 231 231 230 229 224 213 203
300 297 294 292 289 288 287 285 283 278 272 264 256 250 246 245 244 243 243 242 241 241 241 242 243 244 244 245 246 246 245 245 245 246 248 248 249 249 249 249 249 251 252 252 252 251 249 248 247 247 247 246 246 245 245 245 245 245 245 245 245 246 246 246 247 247 247 247 246 245 243 241 240 240 242 243 241 238 235 234 233 228 222 213 205
298 298 296 293 289 287 286 283 282 279 277 274 268 261 255 251 248 246 245 245 244 243 242 242 243 244 245 246 247 248 248 248 247 247 247 248 249 250 250 250 249 248 249 249 250 250 249 248 246 245 244 245 245 245 245 245 245 245 245 246 246 247 247 247 248 248 248 249 249 248 247 246 244 242 242 244 244 243 239 235 231 226 221 217 214
292 294 296 295 292 289 286 282 281 279 278 277 275 271 266 261 256 252 249 248 247 246 245 244 244 244 244 245 246 247 248 249 249 249 248 249 249 250 251 251 251 250 249 248 247 248 248 247 246 245 243 242 243 244 245 246 246 246 246 246 246 246 246 246 247 247 248 249 249 249 249 248 248 246 245 244 245 244 240 235 230 227 226 225 224
287 288 290 292 293 292 288 284 281 278 276 275 274 273 272 269 265 260 256 253 250 249 248 248 247 246 246 247 247 247 248 249 249 250 250 251 251 251 252 252 252 252 252 251 249 248 247 247 247 246 245 244 244 244 245 246 247 248 249 248 248 247 247 246 246 246 247 248 248 249 249 249 248 248 247 246 246 244 240 236 232 232 233 234 234
282 283 284 285 287 288 288 285 280 276 274 273 273 273 272 271 270 268 264 261 257 254 252 251 251 250 249 249 249 249 250 250 250 251 251 252 253 253 253 253 253 253 254 253 253 251 250 249 248 248 248 248 248 247 247 247 248 249 250 251 251 251 250 249 248 247 247 248 248 248 249 248 248 248 247 247 246 245 242 238 236 238 240 241 241
278 278 280 281 282 282 282 282 280 277 275 275 275 273 271 269 268 267 266 265 263 261 258 256 254 254 252 252 252 252 253 253 253 253 253 253 254 254 255 255 255 255 255 255 255 254 253 252 251 251 251 252 253 252 252 251 251 250 251 251 252 253 253 252 252 251 249 249 248 248 249 248 248 248 248 247 246 245 244 242 241 242 245 247 248
278 276 275 276 278 279 278 277 277 277 277 276 274 271 269 267 267 267 266 266 265 264 263 261 259 258 258 256 256 256 256 257 257 256 256 256 256 256 256 256 256 256 256 256 256 256 256 255 254 254 254 254 255 255 256 255 255 254 253 253 253 254 254 255 255 254 253 251 250 249 249 249 249 249 249 249 249 248 246 245 244 244 246 249 251
279 278 275 273 273 275 275 275 275 275 275 275 273 271 270 269 269 268 268 266 265 264 263 263 262 262 262 262 262 262 262 262 261 261 260 260 260 260 259 258 258 257 257 257 257 257 257 257 256 256 256 255 256 256 257 257 257 257 256 256 255 255 256 256 256 256 256 255 253 251 250 249 249 249 249 250 251 251 251 250 249 248 249 250 253
278 279 278 276 273 270 270 272 273 272 272 272 273 272 272 270 269 268 268 267 265 264 264 264 264 264 264 264 265 266 265 266 266 266 265 265 264 264 263 263 262 260 260 258 257 257 257 257 257 257 257 257 257 257 258 258 258 258 258 258 258 258 258 258 258 258 258 257 256 255 253 251 250 249 249 250 251 252 253 253 254 254 254 254 254
275 276 277 277 275 272 269 267 268 270 270 270 270 271 271 270 270 268 267 266 266 266 266 267 267 266 266 266 266 266 266 267 268 268 268 268 267 267 267 267 266 265 264 262 260 259 258 257 257 257 258 258 258 258 258 259 260 260 260 260 260 260 260 260 260 260 260 260 259 258 257 255 253 252 251 251 252 253 254 255 256 257 258 258 258
274 273 273 274 273 273 270 266 264 265 267 268 268 268 268 269 269 269 268 267 267 267 267 268 268 268 267 267 267 267 267 268 268 268 268 268 269 269 269 269 268 268 267 266 265 263 261 260 259 259 259 259 259 259 260 260 261 261 261 262 262 262 262 263 262 262 262 262 262 261 260 258 257 255 254 254 254 254 255 256 257 258 259 260 261
275 274 272 271 270 270 270 268 265 263 263 265 267 267 267 267 268 267 268 268 268 268 268 268 268 268 267 267 268 269 269 269 270 269 269 268 269 269 269 269 269 269 268 268 267 266 265 264 262 261 260 260 260 261 261 262 262 263 263 263 263 263 264 264 264 264 263 263 263 263 262 261 259 258 257 257 257 256 256 257 257 258 259 260 262
276 275 272 270 269 269 269 269 268 265 263 263 265 266 267 267 267 267 267 268 268 269 269 269 269 269 269 269 269 270 270 270 271 271 270 270 270 270 270 270 270 269 268 268 267 267 266 266 265 264 262 262 261 262 262 263 263 264 264 264 264 264 264 264 264 264 263 263 263 262 262 261 261 260 260 259 259 259 259 259 259 259 260 260 261
276 274 271 270 270 269 269 269 269 267 266 266 266 267 268 267 267 267 267 267 268 269 271 271 271 272 271 271 271 270 271 271 271 271 271 271 271 271 271 270 270 269 268 268 267 266 266 265 265 265 264 264 263 263 263 263 263 264 264 264 264 264 264 264 264 264 263 263 263 262 262 262 261 261 260 260 260 260 260 261 261 261 261 262 262
274 271 269 269 269 269 269 268 268 268 268 268 269 271 271 271 269 267 266 266 267 269 271 272 273 273 272 273 272 271 271 271 271 271 271 270 270 270 270 270 270 269 269 268 268 267 266 265 265 265 265 265 265 264 264 264 264 264 264 264 264 264 264 264 264 264 264 264 264 264 264 263 263 262 262 262 262 262 262 262 262 262 262 262 263
274 271 270 268 267 267 268 268 266 266 267 268 270 272 274 275 272 268 266 266 267 268 269 270 271 272 273 273 273 272 271 271 270 270 270 270 269 269 269 269 269 269 269 269 268 267 267 266 266 265 265 265 266 266 266 266 266 265 265 265 265 265 265 265 265 265 265 265 265 265 265 265 264 264 264 264 264 264 263 263 263 263 263 263 263
275 274 271 268 267 268 269 268 267 267 268 269 271 273 276 278 275 271 268 267 267 267 267 268 269 270 271 272 272 272 272 271 271 270 270 269 268 268 267 267 268 268 268 269 268 268 267 266 266 265 265 265 266 266 267 267 266 266 266 266 265 265 265 265 266 266 266 266 266 265 265 265 265 265 265 265 265 264 264 264 264 264 263 263 263
277 277 274 271 270 270 270 270 270 270 270 272 273 274 276 277 276 273 271 269 267 267 267 267 267 268 268 270 271 272 272 272 272 272 271 269 268 268 267 267 267 267 267 267 268 268 267 267 266 265 264 264 264 265 265 266 266 266 266 266 266 266 265 265 265 265 265 266 266 266 266 265 265 265 265 265 264 264 264 263 263 263 263 263 262
279 278 277 274 272 270 270 271 272 272 273 272 273 274 275 274 273 271 268 267 267 267 267 266 266 266 267 268 270 271 272 272 271 271 271 270 269 269 268 268 267 266 266 266 266 266 267 267 266 266 265 264 264 263 263 264 264 265 265 266 266 265 265 265 265 264 265 265 265 265 265 265 266 266 267 267 267 266 266 265 265 264 263 263 262
282 281 279 276 273 270 269 269 270 271 271 271 271 271 271 271 270 269 267 265 265 265 265 265 265 266 266 266 268 269 270 270 270 270 270 270 270 269 268 268 267 267 266 266 266 266 266 266 267 267 267 266 266 265 264 264 264 264 265 265 265 265 264 264 264 264 264 263 263 264 264 265 266 267 268 268 269 269 269 269 269 267 266 265 264
284 283 281 278 275 272 270 268 267 268 269 269 269 267 267 267 268 267 267 264 263 262 262 263 264 264 265 265 266 267 268 269 269 268 268 268 268 268 268 268 268 268 267 267 267 267 267 267 267 267 267 267 267 267 267 267 266 266 265 266 265 265 264 264 264 263 263 263 263 263 264 264 265 266 267 267 268 269 270 270 270 270 269 268 267
283 282 280 279 276 274 272 271 270 270 270 269 269 268 266 265 266 266 266 265 263 261 260 261 262 263 264 264 264 265 266 266 266 266 266 266 267 268 269 269 269 269 268 267 268 268 268 268 268 267 267 266 267 267 268 268 268 268 268 268 266 265 264 264 263 263 262 262 262 263 263 264 265 265 266 267 268 269 270 270 270 270 269 269 268
282 280 279 278 275 273 274 274 274 273 274 274 273 272 269 266 264 264 264 265 264 263 261 260 262 263 264 263 262 262 263 263 264 264 265 266 267 268 268 268 268 267 267 268 268 269 269 269 268 267 267 267 266 266 267 268 268 269 269 268 267 265 264 264 263 263 263 263 264 264 264 265 266 266 268 269 270 271 271 270 270 269 269 268 268
281 281 279 277 274 272 272 273 272 273 274 276 276 276 275 271 267 264 263 263 263 263 263 262 263 264 264 263 261 260 260 260 261 263 264 266 266 267 267 268 268 267 267 268 269 270 270 270 269 267 266 265 265 265 265 265 266 267 267 267 266 266 265 264 264 264 265 265 265 266 266 266 267 268 270 271 272 272 271 271 270 269 268 267 267
280 280 279 278 275 272 270 269 267 267 269 272 274 276 276 275 272 268 265 263 262 262 263 263 263 264 264 264 262 260 258 258 259 260 262 263 264 264 265 266 267 267 268 269 269 270 269 269 267 267 266 265 265 264 264 264 264 265 265 266 266 266 265 265 265 265 265 266 266 266 267 267 269 270 272 273 273 273 272 271 270 268 267 267 266
280 279 279 279 277 275 272 268 265 263 265 268 270 272 273 274 273 270 267 265 263 262 262 262 262 264 264 264 263 261 260 259 259 259 260 261 261 262 262 263 264 265 266 267 267 267 266 266 266 267 267 268 268 268 267 265 264 264 264 264 265 265 265 266 266 265 265 265 266 266 267 267 269 270 272 273 273 273 272 271 269 268 267 266 266
279 279 279 279 279 278 277 274 270 267 266 267 268 269 271 271 272 271 269 267 264 262 262 261 262 263 263 263 263 262 261 261 261 260 260 260 261 261 261 261 261 262 262 262 262 263 264 265 266 267 268 269 271 271 270 268 266 265 264 264 264 265 266 266 266 265 265 265 265 266 266 266 268 269 272 273 273 272 271 270 269 267 266 265 265
278 278 277 277 277 277 277 277 275 273 271 270 270 270 269 269 269 269 270 270 269 267 265 262 261 261 261 262 262 261 261 261 262 261 261 261 261 261 260 260 261 261 260 260 260 261 262 264 265 267 268 269 270 271 270 269 268 266 264 264 264 264 265 265 264 264 264 264 264 265 265 265 266 268 271 272 272 271 271 270 268 267 265 265 264
275 275 275 275 274 273 272 273 274 274 273 272 271 270 269 267 266 265 266 268 269 271 271 269 266 264 262 260 260 260 260 261 261 262 262 262 261 261 261 260 261 261 261 261 261 261 262 263 264 265 266 267 268 270 271 270 268 266 265 265 264 264 264 264 264 264 263 263 263 264 264 264 265 267 270 271 272 271 270 270 268 267 265 264 264
274 274 275 276 276 276 275 273 273 274 274 274 273 271 268 266 265 263 263 263 265 267 269 271 272 271 268 265 263 261 261 261 262 262 263 263 262 262 261 261 261 262 262 262 263 263 264 264 265 265 265 267 268 269 269 268 267 267 266 266 265 265 265 264 263 263 263 263 263 263 263 263 264 266 268 270 271 270 269 270 269 267 266 265 264
274 274 275 277 278 279 279 278 277 276 275 276 276 275 272 270 267 264 262 261 262 263 264 267 269 271 272 272 270 268 266 266 265 265 266 266 266 266 265 264 263 264 264 264 264 264 265 265 266 267 266 267 267 267 266 266 266 266 265 265 266 266 265 263 262 262 263 262 262 262 262 262 263 264 267 269 269 269 268 269 269 268 267 265 264
274 275 277 278 279 279 280 280 279 278 277 276 277 277 276 274 272 270 267 265 263 262 262 263 265 266 269 270 271 272 271 270 269 268 268 268 269 269 268 267 267 266 266 265 265 264 265 265 266 266 267 267 266 265 265 265 265 264 262 262 263 264 264 263 262 262 262 262 262 262 262 262 262 263 265 267 267 267 267 268 268 268 267 265 264
273 275 277 278 279 280 280 281 281 281 280 279 278 277 276 275 274 273 271 270 268 266 265 264 264 264 265 267 268 270 271 272 271 271 270 270 270 270 270 269 269 269 268 268 267 266 265 265 265 265 266 266 266 266 266 266 265 264 262 261 260 261 262 262 263 262 262 261 261 261 262 261 261 262 263 265 266 266 266 266 267 267 266 265 264
274 275 276 277 278 279 279 280 280 281 281 280 280 279 278 276 276 275 273 272 271 271 269 267 265 264 264 264 265 266 268 270 271 271 272 272 271 271 271 271 270 269 269 270 269 268 266 265 264 264 264 265 266 266 267 267 266 265 263 261 259 258 259 260 261 262 261 261 261 262 261 260 260 261 262 263 264 264 264 264 265 265 265 265 264
275 275 276 277 278 278 279 279 279 278 278 278 278 277 276 276 275 275 274 274 273 273 272 271 269 268 266 264 263 263 264 265 267 268 269 270 271 271 271 271 270 270 270 270 270 269 268 266 264 264 263 264 264 265 266 267 267 266 264 262 260 258 258 258 259 261 261 261 260 260 260 260 261 260 260 261 262 263 262 262 262 263 263 263 264
276 275 276 277 278 278 279 279 279 279 278 278 277 276 275 274 274 274 273 273 273 273 273 272 271 269 268 266 264 262 260 261 262 263 264 266 267 268 269 269 269 269 270 270 270 270 269 267 265 264 263 263 264 264 265 265 265 265 265 264 262 260 259 259 258 258 258 258 258 258 259 260 260 260 260 260 261 262 262 261 261 261 261 261 262
279 278 277 278 278 279 279 279 279 280 280 279 279 277 276 275 274 273 272 272 272 272 272 272 271 269 268 266 265 263 261 259 258 259 260 261 263 264 265 266 267 267 268 268 268 269 270 269 267 265 264 264 264 263 263 263 263 263 263 263 262 262 261 259 257 255 256 257 257 258 258 259 259 260 260 260 261 262 262 261 261 260 260 260 261
Height
5854 5854 5854 5853 5853 5853 5853 5852 5852 5851 5851 5851 5851 5851 5851 5852 5853 5853 5854 5854 5855 5855 5856 5856 5857 5857 5858 5858 5859 5859 5859 5859 5860 5860 5861 5861 5862 5862 5863 5864 5864 5864 5864 5865 5865 5866 5866 5867 5867 5867 5868 5868 5869 5869 5870 5870 5871 5871 5872 5873 5873 5874 5875 5875 5876 5877 5877 5878 5878 5879 5879 5879 5879 5879 5879 5880 5880 5880 5880 5880 5881 5881 5882 5883 5883
5855 5854 5854 5853 5853 5853 5853 5853 5852 5852 5852 5851 5851 5851 5851 5852 5852 5853 5853 5854 5854 5855 5855 5856 5856 5857 5857 5858 5858 5858 5859 5859 5860 5860 5861 5861 5862 5862 5863 5863 5863 5864 5864 5864 5865 5865 5865 5866 5866 5866 5867 5868 5868 5869 5869 5869 5870 5871 5871 5872 5872 5873 5874 5875 5875 5876 5876 5877 5878 5878 5879 5879 5879 5879 5879 5879 5879 5879 5880 5880 5880 5881 5881 5882 5882
5855 5854 5854 5853 5853 5853 5853 5853 5853 5852 5852 5852 5852 5852 5852 5852 5852 5852 5853 5854 5854 5855 5855 5856 5856 5857 5857 5857 5858 5858 5859 5859 5860 5860 5860 5861 5861 5862 5862 5862 5862 5863 5863 5864 5864 5864 5864 5865 5865 5866 5866 5867 5868 5868 5869 5869 5870 5870 5870 5871 5872 5872 5873 5874 5874 5875 5876 5876 5877 5878 5878 5878 5878 5878 5878 5878 5879 5879 5879 5880 5880 5880 5880 5881 5882
5855 5854 5854 5853 5853 5853 5853 5853 5853 5853 5853 5852 5852 5852 5852 5852 5852 5852 5853 5853 5854 5854 5855 5855 5856 5856 5857 5857 5857 5858 5858 5859 5859 5859 5860 5860 5860 5861 5861 5861 5862 5862 5863 5863 5864 5864 5864 5864 5865 5865 5866 5867 5867 5868 5868 5868 5869 5869 5870 5870 5871 5871 5872 5873 5874 5874 5875 5876 5876 5877 5877 5877 5877 5877 5878 5878 5878 5879 5879 5879 5879 5879 5880 5880 5881
5855 5854 5854 5853 5853 5853 5853 5852 5852 5852 5853 5853 5853 5853 5852 5852 5852 5852 5852 5853 5853 5854 5854 5855 5855 5856 5856 5857 5857 5857 5858 5858 5859 5859 5859 5859 5860 5860 5861 5861 5861 5862 5862 5863 5863 5863 5864 5864 5864 5865 5865 5866 5867 5867 5868 5868 5868 5868 5869 5869 5870 5870 5871 5872 5872 5873 5874 5875 5875 5876 5876 5876 5876 5876 5877 5877 5878 5878 5878 5878 5878 5879 5879 5879 5880
5854 5854 5854 5853 5853 5853 5852 5852 5852 5852 5852 5853 5853 5853 5853 5853 5853 5853 5852 5853 5853 5853 5853 5854 5854 5855 5856 5856 5857 5857 5858 5858 5858 5859 5859 5859 5859 5860 5860 5860 5861 5861 5862 5862 5863 5863 5863 5864 5864 5865 5865 5866 5866 5866 5867 5867 5867 5868 5868 5868 5869 5869 5870 5871 5871 5872 5873 5874 5874 5875 5875 5876 5875 5875 5876 5876 5877 5877 5877 5877 5878 5878 5878 5878 5878
5853 5853 5853 5853 5853 5852 5852 5852 5852 5852 5852 5852 5852 5853 5853 5853 5853 5853 5853 5853 5853 5853 5853 5854 5854 5855 5855 5856 5856 5857 5857 5858 5858 5859 5859 5859 5859 5860 5860 5860 5860 5861 5861 5862 5862 5862 5863 5863 5864 5864 5864 5865 5865 5866 5866 5867 5867 5867 5867 5868 5868 5869 5869 5870 5870 5871 5872 5872 5873 5874 5874 5875 5874 5874 5875 5875 5876 5876 5876 5876 5876 5877 5877 5877 5877
5853 5853 5853 5853 5852 5852 5852 5852 5852 5852 5852 5852 5852 5852 5853 5853 5853 5853 5853 5853 5853 5853 5853 5854 5854 5854 5855 5855 5856 5857 5857 5857 5858 5858 5859 5859 5859 5860 5860 5860 5860 5860 5861 5861 5862 5862 5862 5862 5863 5863 5864 5864 5865 5865 5866 5866 5867 5867 5867 5867 5868 5868 5868 5869 5869 5870 5871 5871 5872 5872 5873 5873 5873 5873 5874 5874 5875 5875 5875 5875 5875 5875 5876 5876 5876
5852 5852 5852 5852 5852 5852 5852 5852 5851 5851 5852 5852 5852 5852 5852 5852 5853 5853 5853 5853 5853 5853 5853 5854 5854 5854 5854 5855 5855 5856 5856 5857 5857 5858 5858 5859 5859 5859 5859 5860 5860 5860 5860 5861 5861 5861 5862 5862 5862 5863 5863 5863 5864 5864 5865 5865 5866 5866 5866 5867 5867 5867 5867 5868 5869 5869 5870 5870 5871 5871 5872 5872 5872 5872 5872 5873 5873 5874 5874 5874 5874 5874 5875 5875 5875
5851 5851 5851 5851 5851 5851 5851 5851 5851 5851 5851 5851 5851 5851 5851 5852 5852 5852 5852 5853 5853 5853 5853 5853 5854 5854 5854 5855 5855 5855 5856 5856 5857 5857 5858 5858 5858 5859 5859 5859 5859 5860 5860 5860 5860 5861 5861 5861 5862 5862 5862 5863 5863 5863 5864 5864 5865 5865 5865 5866 5866 5866 5866 5867 5867 5868 5869 5869 5870 5870 5871 5871 5871 5871 5871 5872 5872 5873 5872 5872 5873 5873 5873 5874 5874
5851 5851 5850 5850 5850 5850 5850 5850 5850 5850 5850 5850 5851 5851 5851 5851 5851 5851 5852 5852 5852 5852 5853 5853 5853 5853 5854 5854 5854 5855 5855 5855 5856 5856 5857 5857 5858 5858 5858 5858 5859 5859 5859 5860 5860 5860 5861 5861 5861 5861 5862 5862 5862 5862 5863 5863 5863 5864 5864 5864 5865 5865 5865 5866 5866 5867 5868 5868 5869 5869 5870 5870 5870 5870 5870 5871 5871 5872 5871 5872 5872 5872 5873 5873 5874
5850 5850 5850 5850 5849 5849 5849 5849 5849 5849 5849 5850 5850 5850 5850 5850 5850 5851 5851 5851 5851 5851 5852 5852 5852 5853 5853 5853 5853 5854 5854 5855 5855 5855 5856 5856 5857 5857 5857 5857 5858 5858 5859 5859 5859 5860 5860 5860 5860 5861 5861 5861 5861 5861 5862 5862 5862 5863 5863 5863 5864 5864 5864 5865 5865 5866 5867 5867 5868 5868 5868 5869 5869 5869 5869 5870 5870 5870 5871 5871 5871 5871 5872 5872 5873
5850 5850 5849 5849 5849 5849 5848 5848 5848 5848 5848 5848 5849 5849 5849 5849 5850 5850 5850 5850 5850 5851 5851 5851 5851 5851 5852 5852 5852 5853 5853 5853 5854 5854 5855 5855 5855 5856 5856 5856 5857 5857 5858 5858 5858 5859 5859 5859 5860 5860 5860 5860 5860 5861 5861 5861 5861 5862 5862 5863 5863 5863 5864 5864 5865 5865 5866 5866 5867 5867 5867 5868 5868 5868 5868 5869 5869 5869 5870 5870 5870 5870 5871 5871 5872
5849 5849 5849 5848 5848 5848 5848 5847 5847 5847 5847 5847 5847 5848 5848 5848 5849 5849 5849 5849 5850 5850 5850 5850 5850 5850 5851 5851 5851 5851 5852 5852 5853 5853 5853 5854 5854 5855 5855 5855 5856 5856 5856 5857 5857 5858 5858 5859 5859 5859 5859 5860 5860 5860 5860 5860 5861 5861 5861 5862 5862 5863 5863 5863 5864 5864 5865 5865 5866 5866 5866 5867 5867 5867 5867 5868 5868 5868 5869 5869 5869 5869 5870 5870 5871
5849 5848 5848 5848 5848 5847 5847 5847 5846 5846 5846 5846 5846 5846 5846 5847 5847 5847 5848 5848 5848 5849 5849 5849 5849 5849 5850 5850 5850 5850 5850 5851 5851 5852 5852 5852 5853 5853 5854 5854 5855 5855 5855 5856 5856 5857 5857 5857 5858 5858 5858 5859 5859 5859 5859 5860 5860 5860 5861 5861 5861 5862 5862 5863 5863 5863 5864 5864 5865 5865 5865 5866 5866 5866 5866 5867 5867 5867 5868 5868 5868 5868 5869 5869 5870
5848 5847 5847 5847 5847 5847 5846 5846 5846 5845 5845 5845 5845 5845 5845 5845 5845 5846 5846 5847 5847 5847 5848 5848 5848 5848 5848 5849 5849 5849 5849 5849 5850 5850 5851 5851 5851 5852 5852 5853 5853 5854 5854 5854 5855 5855 5856 5856 5857 5857 5857 5858 5858 5858 5859 5859 5859 5860 5860 5860 5860 5861 5861 5862 5862 5862 5863 5863 5864 5864 5864 5864 5865 5865 5865 5865 5866 5866 5866 5867 5867 5867 5868 5868 5869
5847 5847 5846 5846 5846 5846 5846 5845 5845 5845 5844 5844 5844 5844 5844 5844 5844 5844 5845 5845 5845 5846 5846 5846 5847 5847 5847 5847 5847 5847 5848 5848 5849 5849 5849 5849 5850 5850 5851 5851 5852 5852 5853 5853 5853 5854 5854 5855 5855 5856 5856 5857 5857 5857 5858 5858 5858 5859 5859 5859 5859 5860 5860 5861 5861 5861 5862 5862 5862 5863 5863 5863 5864 5864 5864 5864 5864 5865 5865 5865 5866 5866 5867 5867 5868
5846 5846 5845 5845 5845 5845 5844 5844 5844 5844 5843 5843 5843 5843 5843 5843 5843 5843 5843 5843 5844 5844 5844 5845 5845 5845 5845 5846 5846 5846 5846 5847 5847 5847 5848 5848 5848 5849 5849 5849 5850 5850 5851 5851 5852 5852 5853 5853 5854 5854 5855 5855 5855 5856 5856 5856 5857 5857 5858 5858 5858 5858 5859 5859 5859 5860 5860 5861 5861 5861 5862 5862 5862 5862 5863 5863 5863 5864 5864 5864 5864 5865 5865 5866 5866
5844 5844 5844 5844 5844 5843 5843 5843 5843 5843 5842 5842 5842 5842 5842 5842 5842 5842 5842 5842 5842 5842 5843 5843 5843 5843 5844 5844 5844 5844 5845 5845 5846 5846 5846 5847 5847 5847 5847 5848 5848 5848 5849 5849 5850 5850 5851 5851 5852 5852 5853 5853 5854 5854 5854 5855 5855 5855 5856 5856 5856 5857 5857 5858 5858 5858 5858 5859 5859 5860 5860 5860 5861 5861 5861 5861 5862 5862 5863 5863 5863 5864 5864 5864 5865
5843 5843 5842 5842 5842 5842 5841 5841 5841 5841 5841 5841 5841 5841 5841 5841 5841 5841 5841 5841 5841 5841 5841 5841 5841 5841 5842 5842 5842 5843 5843 5843 5844 5844 5845 5845 5845 5845 5846 5846 5846 5846 5847 5847 5848 5848 5848 5849 5849 5850 5850 5851 5851 5852 5852 5853 5853 5853 5854 5854 5854 5855 5855 5856 5856 5856 5857 5857 5857 5858 5858 5858 5859 5859 5859 5859 5860 5861 5861 5862 5862 5862 5863 5863 5863
5841 5841 5841 5840 5840 5839 5839 5839 5839 5839 5839 5839 5840 5840 5840 5839 5839 5839 5839 5839 5839 5839 5839 5840 5840 5840 5840 5840 5840 5841 5841 5841 5842 5842 5842 5843 5843 5843 5843 5844 5844 5844 5845 5845 5845 5846 5846 5846 5847 5847 5848 5848 5848 5849 5849 5850 5850 5851 5851 5852 5852 5853 5853 5854 5854 5855 5855 5855 5856 5856 5856 5856 5857 5857 5857 5857 5858 5859 5859 5860 5860 5861 5861 5861 5862
5839 5839 5839 5838 5838 5837 5837 5837 5837 5837 5837 5837 5838 5838 5838 5838 5838 5838 5838 5838 5838 5838 5838 5838 5838 5838 5838 5838 5838 5839 5839 5839 5839 5840 5840 5840 5841 5841 5841 5841 5842 5842 5842 5843 5843 5843 5844 5844 5845 5845 5845 5846 5846 5846 5847 5847 5848 5848 5849 5849 5850 5850 5851 5851 5852 5852 5853 5853 5853 5854 5854 5854 5855 5855 5855 5855 5856 5856 5857 5857 5858 5858 5859 5859 5859
5837 5837 5836 5836 5836 5835 5835 5834 5834 5834 5835 5835 5835 5835 5836 5836 5836 5836 5836 5836 5836 5836 5836 5836 5836 5836 5836 5836 5836 5837 5837 5837 5837 5837 5838 5838 5838 5838 5839 5839 5839 5840 5840 5840 5841 5841 5841 5842 5842 5842 5843 5843 5843 5844 5844 5845 5845 5846 5846 5847 5847 5847 5848 5848 5849 5849 5850 5850 5851 5851 5852 5852 5852 5852 5853 5853 5853 5854 5854 5855 5855 5856 5856 5857 5857
5834 5834 5833 5833 5833 5832 5832 5832 5831 5831 5832 5832 5832 5833 5833 5834 5834 5834 5834 5834 5834 5834 5835 5835 5835 5835 5835 5835 5835 5835 5835 5835 5835 5835 5835 5836 5836 5836 5836 5836 5837 5837 5837 5838 5838 5838 5839 5839 5839 5840 5840 5841 5841 5841 5841 5842 5842 5843 5843 5844 5844 5845 5845 5846 5846 5846 5847 5847 5848 5848 5849 5849 5850 5850 5850 5850 5851 5851 5852 5852 5853 5853 5853 5854 5854
5831 5831 5830 5830 5829 5829 5829 5829 5829 5828 5828 5828 5829 5829 5830 5831 5831 5832 5832 5832 5832 5832 5832 5833 5832 5833 5832 5833 5833 5833 5833 5833 5833 5833 5833 5833 5833 5833 5833 5833 5834 5834 5834 5835 5835 5835 5836 5836 5836 5837 5837 5838 5838 5838 5839 5839 5840 5840 5840 5841 5841 5842 5842 5843 5843 5843 5844 5844 5845 5845 5846 5846 5847 5847 5847 5848 5848 5848 5849 5849 5850 5850 5850 5850 5851
5828 5827 5827 5826 5826 5826 5826 5826 5826 5826 5826 5826 5826 5826 5827 5828 5828 5828 5829 5829 5829 5830 5830 5830 5830 5830 5830 5830 5831 5831 5831 5831 5830 5830 5831 5830 5830 5830 5830 5831 5831 5831 5831 5832 5832 5832 5833 5833 5833 5834 5834 5834 5835 5835 5836 5836 5837 5837 5837 5838 5838 5839 5839 5840 5840 5840 5841 5841 5841 5842 5842 5843 5843 5844 5844 5844 5845 5845 5846 5846 5846 5847 5847 5847 5847
5824 5824 5823 5823 5823 5823 5823 5823 5823 5823 5823 5823 5823 5823 5824 5824 5825 5825 5826 5826 5826 5827 5827 5827 5827 5827 5827 5827 5828 5828 5828 5828 5828 5827 5827 5828 5828 5827 5827 5828 5828 5828 5828 5829 5829 5829 5829 5830 5830 5830 5831 5831 5831 5832 5832 5833 5833 5834 5834 5835 5835 5836 5836 5836 5837 5837 5837 5838 5838 5839 5839 5840 5840 5841 5841 5841 5841 5842 5842 5842 5843 5843 5843 5844 5844
5820 5820 5819 5820 5820 5820 5820 5821 5821 5821 5821 5821 5821 5821 5821 5821 5821 5822 5822 5823 5823 5824 5824 5824 5824 5824 5824 5824 5825 5825 5825 5825 5825 5824 5824 5825 5824 5824 5824 5825 5825 5824 5825 5825 5825 5826 5826 5826 5827 5827 5827 5828 5828 5828 5829 5829 5830 5830 5831 5831 5832 5832 5832 5833 5833 5834 5834 5834 5835 5835 5836 5836 5837 5837 5837 5837 5838 5838 5838 5839 5839 5839 5840 5840 5840
5817 5816 5816 5817 5817 5817 5818 5818 5818 5818 5818 5819 5819 5819 5818 5818 5818 5819 5819 5819 5820 5820 5820 5821 5821 5821 5821 5821 5821 5821 5821 5821 5821 5821 5821 5821 5821 5821 5821 5821 5821 5821 5821 5822 5822 5822 5823 5823 5823 5824 5824 5824 5824 5825 5825 5826 5826 5826 5827 5827 5828 5828 5829 5829 5829 5830 5830 5830 5831 5831 5832 5832 5832 5833 5833 5833 5834 5834 5834 5835 5835 5835 5836 5836 5837
5813 5813 5814 5814 5814 5814 5815 5816 5816 5816 5816 5816 5816 5816 5816 5816 5815 5815 5815 5815 5816 5817 5817 5817 5818 5817 5817 5817 5817 5817 5817 5817 5817 5817 5817 5817 5817 5817 5817 5818 5818 5818 5818 5818 5818 5818 5819 5819 5820 5820 5820 5820 5821 5821 5821 5822 5822 5823 5823 5824 5824 5824 5825 5825 5825 5826 5826 5826 5827 5827 5828 5828 5828 5829 5829 5829 5829 5830 5830 5830 5831 5831 5831 5832 5832
5810 5811 5812 5811 5811 5812 5812 5812 5812 5813 5813 5813 5814 5813 5813 5813 5812 5812 5812 5812 5812 5813 5813 5813 5813 5813 5814 5813 5813 5813 5813 5813 5814 5813 5813 5813 5813 5814 5814 5814 5814 5814 5814 5815 5815 5815 5815 5816 5816 5816 5816 5817 5817 5817 5818 5818 5818 5819 5819 5820 5820 5821 5821 5821 5821 5822 5822 5823 5823 5823 5823 5824 5824 5824 5825 5825 5825 5825 5826 5826 5826 5826 5827 5827 5828
5809 5809 5809 5809 5809 5809 5809 5808 5808 5809 5810 5810 5810 5810 5810 5810 5809 5809 5809 5809 5809 5809 5809 5809 5809 5809 5810 5809 5809 5809 5809 5809 5810 5809 5809 5809 5809 5810 5810 5810 5811 5810 5810 5811 5811 5811 5812 5812 5812 5812 5813 5813 5813 5813 5814 5814 5815 5815 5815 5816 5816 5817 5817 5817 5818 5818 5818 5818 5819 5819 5819 5819 5820 5820 5820 5821 5821 5821 5821 5822 5822 5822 5823 5823 5823
5807 5807 5806 5806 5805 5805 5805 5805 5804 5805 5805 5806 5806 5807 5807 5807 5806 5806 5806 5806 5805 5805 5805 5805 5805 5805 5806 5806 5805 5805 5805 5805 5805 5805 5805 5804 5805 5805 5806 5806 5807 5806 5806 5807 5807 5807 5808 5809 5809 5809 5809 5809 5809 5809 5810 5810 5811 5811 5812 5812 5813 5813 5814 5814 5814 5814 5814 5814 5814 5815 5815 5815 5815 5815 5816 5816 5816 5816 5817 5817 5817 5818 5818 5818 5819
5804 5804 5803 5802 5801 5801 5801 5801 5800 5800 5800 5800 5801 5802 5802 5802 5802 5802 5802 5803 5802 5802 5802 5802 5802 5802 5802 5802 5801 5801 5801 5801 5801 5802 5801 5800 5801 5801 5801 5801 5802 5802 5802 5802 5803 5803 5804 5804 5804 5805 5805 5805 5806 5806 5806 5806 5807 5808 5808 5809 5809 5810 5810 5810 5810 5810 5810 5810 5810 5810 5810 5810 5810 5811 5811 5811 5811 5811 5812 5812 5812 5813 5813 5813 5814
5800 5800 5800 5799 5798 5798 5797 5797 5796 5795 5795 5794 5795 5796 5796 5797 5798 5798 5798 5799 5799 5799 5799 5798 5798 5798 5798 5798 5797 5797 5796 5796 5796 5797 5796 5796 5796 5796 5796 5796 5797 5797 5798 5798 5798 5799 5800 5800 5800 5801 5801 5801 5801 5801 5802 5802 5803 5803 5804 5805 5805 5805 5806 5806 5806 5806 5806 5806 5806 5806 5806 5806 5806 5806 5807 5807 5807 5807 5807 5807 5808 5808 5808 5808 5809
5795 5796 5796 5796 5795 5795 5795 5794 5793 5792 5791 5790 5790 5790 5791 5792 5793 5793 5794 5795 5795 5795 5795 5795 5795 5795 5794 5794 5793 5793 5792 5791 5791 5792 5791 5791 5792 5792 5792 5792 5793 5793 5793 5793 5794 5795 5796 5796 5796 5796 5796 5796 5797 5797 5798 5798 5798 5799 5800 5800 5801 5801 5801 5801 5802 5802 5801 5801 5801 5801 5802 5802 5802 5802 5803 5803 5803 5803 5803 5803 5803 5803 5804 5804 5804
5791 5791 5792 5792 5792 5792 5792 5791 5790 5790 5788 5788 5787 5786 5787 5788 5788 5788 5789 5790 5791 5791 5791 5791 5791 5790 5790 5790 5789 5788 5788 5787 5786 5787 5786 5786 5787 5788 5787 5788 5788 5788 5788 5789 5789 5790 5791 5791 5791 5791 5791 5791 5792 5792 5793 5793 5794 5794 5795 5795 5795 5796 5796 5796 5797 5797 5797 5797 5797 5797 5797 5797 5798 5798 5798 5798 5799 5799 5799 5798 5798 5799 5799 5799 5799
5786 5787 5787 5787 5787 5787 5788 5787 5787 5786 5785 5785 5784 5783 5783 5783 5784 5784 5784 5785 5785 5786 5786 5786 5786 5786 5785 5785 5785 5784 5783 5782 5782 5782 5781 5781 5782 5782 5782 5783 5783 5783 5783 5784 5784 5785 5786 5786 5786 5786 5786 5786 5786 5786 5787 5788 5788 5789 5789 5789 5790 5790 5790 5791 5791 5792 5792 5792 5792 5792 5793 5793 5793 5793 5794 5794 5794 5794 5794 5794 5794 5794 5794 5794 5794
5782 5782 5782 5782 5782 5783 5783 5783 5782 5782 5782 5781 5780 5780 5779 5779 5779 5780 5780 5780 5780 5780 5780 5781 5781 5781 5781 5781 5780 5780 5778 5777 5777 5777 5776 5776 5777 5777 5777 5778 5778 5778 5779 5780 5780 5781 5781 5781 5780 5781 5781 5781 5781 5781 5782 5783 5782 5783 5784 5784 5784 5784 5785 5785 5786 5787 5787 5787 5787 5788 5788 5788 5788 5789 5789 5789 5789 5789 5789 5789 5789 5789 5789 5789 5790
5778 5778 5778 5778 5778 5778 5778 5778 5778 5778 5778 5777 5777 5776 5775 5774 5774 5775 5775 5775 5775 5775 5775 5776 5776 5776 5776 5776 5776 5776 5774 5773 5773 5773 5772 5771 5771 5771 5772 5773 5772 5772 5774 5775 5775 5775 5775 5775 5775 5776 5776 5776 5776 5777 5778 5777 5777 5777 5778 5778 5778 5778 5779 5780 5781 5781 5781 5782 5782 5783 5783 5783 5784 5784 5784 5784 5784 5784 5784 5784 5784 5784 5784 5785 5785
5774 5774 5774 5774 5774 5774 5774 5774 5775 5774 5775 5774 5773 5773 5772 5771 5770 5770 5770 5770 5770 5770 5770 5770 5770 5770 5771 5771 5771 5771 5770 5769 5769 5768 5767 5767 5767 5766 5767 5768 5767 5767 5769 5769 5769 5769 5770 5769 5770 5771 5771 5771 5771 5772 5773 5772 5772 5773 5773 5772 5772 5773 5774 5775 5775 5776 5776 5776 5777 5777 5778 5778 5779 5779 5779 5780 5780 5780 5779 5779 5779 5779 5780 5780 5780
5770 5770 5770 5770 5770 5770 5770 5770 5770 5770 5770 5771 5770 5769 5768 5768 5767 5766 5765 5765 5765 5765 5764 5764 5764 5764 5765 5765 5766 5765 5765 5765 5764 5763 5763 5762 5762 5762 5762 5763 5763 5762 5763 5763 5763 5764 5764 5764 5764 5765 5765 5765 5766 5767 5767 5767 5767 5767 5767 5767 5767 5768 5769 5769 5770 5770 5770 5770 5771 5772 5773 5773 5774 5774 5774 5775 5775 5775 5775 5775 5775 5775 5775 5775 5775
5766 5766 5765 5765 5765 5765 5765 5765 5765 5765 5765 5766 5766 5765 5764 5763 5763 5762 5761 5760 5760 5760 5759 5759 5759 5759 5759 5759 5759 5759 5759 5759 5759 5758 5758 5757 5757 5757 5758 5759 5758 5757 5757 5758 5758 5758 5758 5758 5759 5759 5759 5759 5760 5761 5762 5761 5761 5761 5761 5761 5762 5762 5763 5764 5765 5764 5764 5764 5766 5766 5767 5767 5768 5769 5769 5769 5770 5770 5770 5770 5770 5770 5771 5771 5771
5762 5761 5761 5760 5760 5760 5760 5761 5760 5760 5760 5760 5760 5760 5760 5759 5758 5758 5757 5756 5756 5756 5755 5754 5754 5753 5753 5754 5753 5753 5753 5753 5753 5753 5753 5752 5752 5752 5753 5754 5753 5752 5752 5752 5753 5754 5753 5753 5754 5753 5754 5754 5754 5755 5755 5754 5754 5755 5756 5755 5756 5757 5758 5759 5759 5757 5758 5759 5760 5760 5761 5762 5763 5763 5764 5764 5765 5765 5765 5765 5766 5766 5766 5766 5766
5758 5757 5756 5756 5755 5755 5754 5754 5755 5755 5755 5755 5755 5755 5755 5754 5754 5753 5752 5752 5751 5751 5750 5750 5749 5748 5748 5748 5748 5748 5748 5748 5748 5748 5747 5747 5747 5747 5747 5748 5748 5747 5747 5747 5747 5748 5748 5748 5749 5748 5748 5748 5748 5749 5749 5748 5748 5749 5750 5749 5750 5752 5753 5753 5752 5752 5752 5753 5754 5755 5755 5756 5757 5758 5759 5759 5760 5760 5760 5760 5760 5761 5761 5761 5761
5753 5752 5751 5751 5750 5749 5748 5748 5748 5748 5749 5749 5749 5749 5749 5749 5748 5748 5747 5747 5746 5746 5746 5745 5744 5744 5743 5743 5743 5743 5743 5742 5742 5742 5742 5741 5741 5741 5742 5742 5743 5742 5742 5741 5742 5742 5743 5743 5743 5743 5743 5742 5742 5742 5742 5743 5742 5743 5744 5743 5745 5746 5746 5746 5746 5747 5747 5748 5749 5749 5750 5751 5751 5752 5753 5754 5754 5754 5755 5755 5755 5755 5756 5756 5756
5748 5747 5746 5746 5745 5744 5743 5742 5742 5742 5742 5742 5743 5743 5742 5742 5742 5742 5742 5741 5741 5741 5741 5740 5739 5739 5738 5738 5737 5737 5737 5736 5736 5736 5736 5736 5735 5735 5735 5736 5736 5736 5736 5735 5736 5737 5737 5737 5737 5737 5737 5736 5736 5736 5737 5737 5736 5736 5737 5737 5738 5738 5738 5740 5741 5741 5742 5742 5743 5743 5744 5745 5745 5746 5747 5748 5748 5749 5749 5749 5749 5750 5750 5750 5751
5742 5742 5741 5740 5739 5739 5738 5738 5737 5736 5736 5735 5735 5735 5735 5735 5735 5735 5735 5735 5735 5735 5735 5735 5734 5734 5733 5732 5732 5731 5731 5730 5730 5730 5730 5730 5729 5729 5729 5729 5729 5729 5729 5729 5729 5730 5730 5730 5730 5730 5730 5730 5730 5730 5731 5731 5730 5731 5731 5731 5731 5731 5731 5733 5734 5735 5736 5737 5738 5738 5737 5738 5739 5740 5741 5741 5742 5743 5743 5743 5743 5744 5744 5745 5745
5736 5736 5735 5734 5733 5733 5732 5732 5731 5731 5730 5729 5729 5728 5728 5728 5728 5728 5728 5728 5728 5728 5728 5728 5727 5727 5727 5726 5726 5725 5725 5724 5723 5723 5723 5723 5723 5723 5722 5722 5723 5723 5723 5722 5722 5722 5723 5723 5723 5723 5723 5723 5723 5723 5724 5725 5725 5724 5724 5724 5725 5725 5724 5726 5728 5729 5729 5730 5731 5730 5730 5731 5732 5733 5734 5735 5735 5736 5736 5737 5737 5738 5739 5739 5739
5730 5729 5728 5727 5726 5726 5725 5725 5724 5724 5724 5723 5723 5722 5721 5721 5720 5720 5720 5720 5720 5720 5720 5720 5720 5720 5719 5719 5719 5718 5718 5717 5717 5716 5716 5716 5715 5715 5715 5715 5716 5716 5716 5716 5716 5715 5716 5716 5716 5715 5715 5715 5715 5716 5717 5718 5718 5718 5718 5718 5718 5718 5719 5720 5721 5722 5721 5721 5722 5723 5724 5724 5725 5726 5727 5728 5729 5729 5730 5730 5731 5732 5733 5733 5733
5723 5723 5722 5721 5720 5719 5718 5717 5717 5717 5716 5716 5716 5715 5715 5714 5713 5713 5713 5713 5712 5712 5712 5712 5711 5711 5711 5710 5710 5710 5709 5709 5709 5708 5708 5708 5708 5708 5708 5708 5708 5708 5708 5709 5709 5709 5709 5709 5709 5709 5708 5708 5709 5709 5708 5709 5710 5710 5710 5711 5712 5712 5713 5713 5713 5713 5713 5713 5713 5716 5718 5717 5717 5719 5720 5721 5722 5723 5724 5724 5725 5726 5727 5727 5728